Content
SEND FEEDBACK

Daily
Averages
Monthly
Summary
United States of America

MARBLEHEAD, OHIO


Home > North America > United States > Ohio
Elevation: 630 feet     Latitude: 41 30N     Longitude: 082 42W

WEATHER
 
SELECT A DAY
Number of Records: 180,660;   Date Range: 10/8/98 - 9/20/14
 
SHARE

PRINT THIS DATA

[ ← Previous Day ]
WEATHER ALMANAC - OCTOBER 22, 2013
[ Next Day → ]
[ °C ]   °F
Weather ElementAverageHighLow
Temperature44.2 °F50 °F (2:53 pm)36 °F (7:53 am)
Dewpoint30.5 °F37 °F (12:53 am)25 °F (5:53 pm)
Humidity59.8 %76 % (5:53 am)39 % (5:53 pm)
Barometer29.93 in29.99 in (9:53 am)29.89 in (12:53 am)
Wind Speed8.8 mph13.8 mph (10:53 am)
Wind Gust19.6 mph (12:53 pm)
Weather ElementAverage
Visibility9.9 mi
Wind DirectionWSW (252.5 °)

Weather ElementTotal
Precipitation---
Heating Degree Days22 (Base 65)
Averaged from 24 records on October 22, 2013
WEATHER CONDITIONS BREAKOUT
WIND DIRECTION BREAKOUT
WEATHER BY HOUR - OCTOBER 22, 2013
[ °C ]   °F
Local TimeTemperatureDewpointHumidityBarometerVisibilityWind DirectionWind SpeedGust SpeedPrecipitationEventsConditions
12:53 AM46.9 °F37.0 °F68 %29.89 in10.0 miWNW (290°)11.5 mphOvercast
1:53 AM45.0 °F35.1 °F68 %29.90 in10.0 miWest (270°)9.2 mphScattered Clouds
2:53 AM43.0 °F34.0 °F71 %29.91 in10.0 miWest (280°)6.9 mphClear
3:53 AM41.0 °F32.0 °F70 %29.91 in10.0 miWest (270°)11.5 mphClear
4:53 AM39.0 °F30.9 °F73 %29.92 in10.0 miWest (270°)9.2 mphClear
5:53 AM37.0 °F30.0 °F76 %29.94 in9.0 miWest (260°)9.2 mph0.00 inSnowLight Snow
6:53 AM37.0 °F30.0 °F76 %29.96 in9.0 miWest (260°)9.2 mph0.00 inSnowLight Snow
7:53 AM36.0 °F28.9 °F76 %29.97 in10.0 miWest (260°)8.1 mph0.00 inClear
8:53 AM37.9 °F30.0 °F73 %29.98 in10.0 miWest (270°)8.1 mphClear
9:53 AM42.1 °F30.0 °F62 %29.99 in10.0 miWest (260°)11.5 mphClear
10:53 AM45.0 °F28.9 °F53 %29.99 in10.0 miWest (270°)13.8 mph17.3 mphPartly Cloudy
11:53 AM46.0 °F28.0 °F50 %29.99 in10.0 miWNW (300°)12.7 mph17.3 mphClear
12:53 PM48.0 °F28.9 °F48 %29.97 in10.0 miVariable6.9 mph19.6 mphScattered Clouds
1:53 PM48.9 °F30.0 °F48 %29.95 in10.0 miWSW (250°)12.7 mph0.00 inPartly Cloudy
2:53 PM50.0 °F28.9 °F44 %29.91 in10.0 miWest (270°)8.1 mphClear
3:53 PM50.0 °F28.9 °F44 %29.91 in10.0 miWest (260°)11.5 mphClear
4:53 PM50.0 °F28.0 °F43 %29.91 in10.0 miWSW (250°)9.2 mphClear
5:53 PM48.9 °F25.0 °F39 %29.91 in10.0 miWest (280°)6.9 mphClear
6:53 PM46.9 °F30.0 °F52 %29.91 in10.0 miSW (230°)3.5 mphOvercast
7:53 PM46.0 °F32.0 °F58 %29.90 in10.0 miSW (230°)3.5 mphOvercast
8:53 PM44.1 °F33.1 °F65 %29.90 in10.0 miWest (260°)4.6 mphOvercast
9:53 PM46.0 °F30.0 °F54 %29.91 in10.0 miWSW (250°)6.9 mphOvercast
10:53 PM44.1 °F30.0 °F58 %29.92 in10.0 miWSW (250°)8.1 mphOvercast
11:53 PM42.1 °F32.0 °F67 %29.91 in10.0 miWest (270°)8.1 mphOvercast
Hourly data recorded from KLPR, located miles away from Marblehead, Ohio







STORIES FROM OUR PARTNERS